Weather History for KLRU - July, 2013

Change the Weather History Date:

Saturday, July 13, 2013

  Actual Average (WUND) Record (WUND)
Temperature  
Mean Temperature 84 °F -  
Max Temperature 97 °F - - (-1)
Min Temperature 70 °F - - (-1)
Cooling Degree Days 18    
Growing Degree Days 34 (Base 50)    
Moisture  
Dew Point 51 °F    
Average Humidity 35    
Maximum Humidity 61    
Minimum Humidity 16    
Precipitation  
Precipitation 0.00 in - - ()
Sea Level Pressure  
Sea Level Pressure 30.07 in    
Wind  
Wind Speed 7 mph (SE)    
Max Wind Speed 13 mph    
Max Gust Speed 20 mph    
Visibility 10 miles    
Events      
Averages and records for this station are not official NWS values.
T = Trace of Precipitation, MM = Missing Value Source: NWS Daily Summary

Daily Weather History Graph

Daily Weather History Graph

Search for Another Location

Airport or City:

Trip Planner

Search our weather history database for the weather conditions in past years. The results will help you decide how hot, cold, wet, or windy it might be!

Date:

Astronomy

Jul. 13, 2013 Rise Set
Actual Time 6:10 AM MDT 8:16 PM MDT
Civil Twilight 5:42 AM MDT 8:43 PM MDT
Nautical Twilight 5:08 AM MDT 9:17 PM MDT
Astronomical Twilight 4:32 AM MDT 9:53 PM MDT
Moon 11:08 AM MDT (7/13) 11:21 PM MDT (7/13)
Length of Visible Light 15h 01m
Length of Day
14h 05m
Waxing Crescent, 26% of the Moon is Illuminated
Jul 13
Waxing Crescent
Jul 15
First Quarter
Jul 22
Full
Jul 29
Last Quarter
Aug 6
New

Hourly Weather History & Observations

Time (MDT) Temp. Heat Index Dew Point Humidity Pressure Visibility Wind Dir Wind Speed Gust Speed Precip Events Conditions
12:15 AM 77.0 °F - 57.0 °F 50% 30.09 in 10.0 mi WNW 12.7 mph 19.6 mph N/A   Mostly Cloudy
12:35 AM 75.6 °F - 56.7 °F 52% 30.09 in 10.0 mi WNW 11.5 mph - N/A   Clear
12:55 AM 75.4 °F - 56.1 °F 51% 30.10 in 10.0 mi WNW 10.4 mph - N/A   Clear
1:15 AM 75.0 °F - 55.9 °F 51% 30.09 in 10.0 mi WNW 6.9 mph - N/A   Clear
1:35 AM 73.9 °F - 56.5 °F 54% 30.10 in 10.0 mi NNW 8.1 mph - N/A   Clear
1:55 AM 73.8 °F - 56.3 °F 54% 30.10 in 10.0 mi NNW 9.2 mph - N/A   Clear
2:15 AM 73.4 °F - 56.7 °F 56% 30.09 in 10.0 mi NNW 6.9 mph - N/A   Clear
2:35 AM 75.0 °F - 55.9 °F 51% 30.08 in 10.0 mi NNE 8.1 mph - N/A   Clear
2:55 AM 75.4 °F - 55.9 °F 51% 30.08 in 10.0 mi NNE 5.8 mph - N/A   Clear
3:15 AM 75.2 °F - 56.7 °F 52% 30.08 in 10.0 mi NNE 8.1 mph - N/A   Clear
3:35 AM 74.5 °F - 57.4 °F 55% 30.08 in 10.0 mi NNE 8.1 mph - N/A   Clear
3:55 AM 74.3 °F - 57.4 °F 55% 30.08 in 10.0 mi NNE 10.4 mph - N/A   Clear
4:15 AM 73.6 °F - 57.2 °F 56% 30.08 in 10.0 mi North 5.8 mph - N/A   Clear
4:35 AM 72.5 °F - 56.5 °F 57% 30.08 in 10.0 mi Calm Calm - N/A   Clear
4:55 AM 73.4 °F - 55.2 °F 53% 30.08 in 10.0 mi NW 6.9 mph - N/A   Clear
5:15 AM 72.0 °F - 55.6 °F 56% 30.08 in 10.0 mi NW 4.6 mph - N/A   Scattered Clouds
5:35 AM 71.8 °F - 56.5 °F 58% 30.09 in 10.0 mi NNW 4.6 mph - N/A   Scattered Clouds
5:55 AM 70.9 °F - 56.7 °F 61% 30.09 in 10.0 mi NNW 3.5 mph - N/A   Mostly Cloudy
6:15 AM 71.1 °F - 56.3 °F 60% 30.09 in 10.0 mi North 4.6 mph - N/A   Mostly Cloudy
6:35 AM 72.3 °F - 55.8 °F 56% 30.10 in 10.0 mi Calm Calm - N/A   Overcast
6:55 AM 73.8 °F - 56.3 °F 54% 30.11 in 10.0 mi Calm Calm - N/A   Overcast
7:15 AM 75.0 °F - 56.3 °F 52% 30.11 in 10.0 mi South 4.6 mph - N/A   Mostly Cloudy
7:35 AM 75.6 °F - 57.4 °F 53% 30.12 in 10.0 mi SW 4.6 mph - N/A   Clear
7:55 AM 76.1 °F - 57.9 °F 53% 30.12 in 10.0 mi WSW 5.8 mph - N/A   Clear
8:15 AM 77.4 °F - 57.9 °F 51% 30.13 in 10.0 mi West 4.6 mph - N/A   Clear
8:35 AM 79.0 °F - 55.4 °F 44% 30.14 in 10.0 mi WSW 3.5 mph - N/A   Clear
8:55 AM 81.0 °F 80.5 °F 54.0 °F 39% 30.14 in 10.0 mi ESE 5.8 mph - N/A   Clear
9:15 AM 81.5 °F 80.9 °F 54.5 °F 39% 30.14 in 10.0 mi ESE 3.5 mph - N/A   Clear
9:35 AM 81.9 °F 81.1 °F 53.8 °F 38% 30.14 in 10.0 mi Calm Calm - N/A   Clear
9:55 AM 83.7 °F - 52.3 °F 34% 30.14 in 10.0 mi ESE 3.5 mph - N/A   Clear
10:15 AM 84.9 °F - 52.2 °F 32% 30.13 in 10.0 mi ESE 4.6 mph - N/A   Clear
10:35 AM 85.5 °F - 51.1 °F 30% 30.13 in 10.0 mi SE 4.6 mph - N/A   Clear
10:55 AM 85.6 °F - 51.1 °F 30% 30.12 in 10.0 mi South 4.6 mph - N/A   Clear
11:15 AM 87.8 °F - 51.3 °F 28% 30.12 in 10.0 mi East 8.1 mph - N/A   Clear
11:35 AM 88.0 °F - 50.4 °F 27% 30.12 in 10.0 mi East 4.6 mph - N/A   Clear
11:55 AM 89.2 °F - 50.7 °F 27% 30.12 in 10.0 mi East 5.8 mph - N/A   Clear
12:15 PM 89.8 °F - 51.6 °F 27% 30.11 in 10.0 mi ENE 8.1 mph - N/A   Clear
12:35 PM 90.9 °F - 50.2 °F 25% 30.10 in 10.0 mi SE 3.5 mph - N/A   Clear
12:55 PM 91.2 °F - 50.5 °F 25% 30.09 in 10.0 mi ENE 6.9 mph - N/A   Clear
1:15 PM 93.2 °F - 49.8 °F 23% 30.08 in 10.0 mi ESE 5.8 mph - N/A   Clear
1:35 PM 93.9 °F - 50.4 °F 23% 30.08 in 10.0 mi East 4.6 mph 17.3 mph N/A   Clear
1:55 PM 93.9 °F - 48.9 °F 21% 30.07 in 10.0 mi South 8.1 mph - N/A   Clear
2:15 PM 94.8 °F - 45.3 °F 18% 30.06 in 10.0 mi SSE 4.6 mph - N/A   Clear
2:35 PM 95.9 °F - 46.0 °F 18% 30.06 in 10.0 mi ESE 5.8 mph 10.4 mph N/A   Clear
2:55 PM 95.5 °F - 46.6 °F 19% 30.05 in 10.0 mi East 8.1 mph - N/A   Clear
3:15 PM 94.5 °F - 45.7 °F 19% 30.05 in 10.0 mi South 8.1 mph - N/A   Clear
3:35 PM 95.0 °F - 44.4 °F 18% 30.04 in 10.0 mi ENE 9.2 mph - N/A   Clear
3:55 PM 97.9 °F - 44.4 °F 16% 30.03 in 10.0 mi SE 10.4 mph 16.1 mph N/A   Scattered Clouds
4:15 PM 96.8 °F - 43.3 °F 16% 30.02 in 10.0 mi South 9.2 mph - N/A   Scattered Clouds
4:35 PM 97.5 °F - 43.3 °F 16% 30.02 in 10.0 mi SSE 9.2 mph 16.1 mph N/A   Clear
4:55 PM 96.6 °F - 43.7 °F 16% 30.01 in 10.0 mi SSE 12.7 mph - N/A   Clear
5:15 PM 96.6 °F - 45.0 °F 17% 30.00 in 10.0 mi South 5.8 mph - N/A   Clear
5:35 PM 96.6 °F - 45.1 °F 17% 29.99 in 10.0 mi ESE 4.6 mph - N/A   Scattered Clouds
5:55 PM 96.4 °F - 46.0 °F 18% 29.99 in 10.0 mi ESE 9.2 mph 16.1 mph N/A   Scattered Clouds
6:15 PM 95.5 °F - 47.3 °F 19% 29.99 in 10.0 mi East 6.9 mph - N/A   Clear
6:35 PM 95.0 °F - 47.7 °F 20% 29.99 in 10.0 mi SE 3.5 mph - N/A   Clear
6:55 PM 95.4 °F - 46.8 °F 19% 29.99 in 10.0 mi SSE 6.9 mph - N/A   Scattered Clouds
7:15 PM 93.6 °F - 46.8 °F 20% 29.99 in 10.0 mi ESE 5.8 mph - N/A   Scattered Clouds
7:35 PM 93.9 °F - 46.8 °F 20% 29.99 in 10.0 mi SE 6.9 mph - N/A   Clear
7:55 PM 93.0 °F - 47.3 °F 21% 30.00 in 10.0 mi SE 6.9 mph - N/A   Clear
8:15 PM 92.1 °F - 46.9 °F 21% 30.00 in 10.0 mi SSE 6.9 mph - N/A   Clear
8:35 PM 91.2 °F - 46.8 °F 22% 30.01 in 10.0 mi SSE 3.5 mph - N/A   Clear
8:55 PM 89.8 °F - 46.6 °F 22% 30.02 in 10.0 mi SSE 3.5 mph - N/A   Clear
9:15 PM 89.6 °F - 48.0 °F 24% 30.02 in 10.0 mi SSW 8.1 mph - N/A   Clear
9:35 PM 89.1 °F - 47.8 °F 24% 30.03 in 10.0 mi SW 6.9 mph - N/A   Clear
9:55 PM 87.6 °F - 48.2 °F 26% 30.04 in 10.0 mi Calm Calm - N/A   Clear
10:15 PM 86.2 °F - 48.4 °F 27% 30.05 in 10.0 mi Calm Calm - N/A   Clear
10:35 PM 86.9 °F - 47.3 °F 25% 30.06 in 10.0 mi South 3.5 mph - N/A   Clear
10:55 PM 86.5 °F - 45.9 °F 24% 30.06 in 10.0 mi South 6.9 mph - N/A   Clear
11:15 PM 84.9 °F - 48.7 °F 28% 30.07 in 10.0 mi SSW 9.2 mph - N/A   Clear
11:35 PM 83.7 °F - 49.1 °F 30% 30.07 in 10.0 mi SW 10.4 mph - N/A   Clear
11:55 PM 82.4 °F - 49.3 °F 31% 30.07 in 10.0 mi SW 6.9 mph - N/A   Clear